AAR203 KLAX-RKSI

Flight info

Callsign AAR203
Flight time N/A
Altitude 36000
Route SUMMR2 MCKEY DCT LIBBO/N0493F340 DCT BRINY DCT BOARS DCT AMAKR DCT REDWD/N0488F360 DCT UNVER DCT 46N140W 51N150W 54N160W DCT CRYPT DCT ALDOZ DCT ONEIL DCT NIKLL/N0503F370 R220 NOGAL/N0487F380 R220 NODAN R217 SDE Y512 GTC L512 TENAS/N0495F360 Y437 LESBU/N0500F340 Y437 KAE Y697 KARBU KARBU3C
Aircraft A359/H-SDE2E3GHIJ3J4J5LM1ORWXY/LB1D1

Departure

Time N/A
Airport Los Angeles International Airport (KLAX)

Arrival

Time 2026-05-06 07:43
Airport Incheon International Airport (RKSI)
Time Latitude Longitude Altitude Speed Heading
2026-05-06 04:49 43.26052 148.63868 38023 ft 432 kts 228°
2026-05-06 04:49 43.21787 148.58049 38014 ft 432 kts 228°
2026-05-06 04:50 43.17519 148.52238 38023 ft 433 kts 228°
2026-05-06 04:50 43.13246 148.46433 38017 ft 433 kts 228°
2026-05-06 04:51 43.08971 148.40636 38025 ft 433 kts 228°
2026-05-06 04:51 43.04687 148.34841 38023 ft 433 kts 228°
2026-05-06 04:52 43.00404 148.29058 38028 ft 433 kts 228°
2026-05-06 04:52 42.96114 148.23278 38028 ft 433 kts 228°
2026-05-06 04:53 42.91822 148.17506 38034 ft 433 kts 228°
2026-05-06 04:53 42.87528 148.11745 38027 ft 433 kts 228°
2026-05-06 04:54 42.83225 148.05983 38038 ft 433 kts 228°
2026-05-06 04:54 42.78921 148.00232 38029 ft 434 kts 228°
2026-05-06 04:55 42.74612 147.94487 38035 ft 434 kts 228°
2026-05-06 04:55 42.70301 147.88749 38035 ft 434 kts 227°
2026-05-06 04:56 42.65984 147.83016 38040 ft 434 kts 227°
2026-05-06 04:56 42.61665 147.77292 38039 ft 434 kts 227°
2026-05-06 04:57 42.57345 147.71578 38043 ft 434 kts 227°
2026-05-06 04:57 42.53018 147.65867 38039 ft 434 kts 227°
2026-05-06 04:58 42.48656 147.60117 38053 ft 442 kts 227°
2026-05-06 04:58 42.44212 147.54273 38042 ft 447 kts 227°
2026-05-06 04:59 42.39736 147.48404 38058 ft 449 kts 227°
2026-05-06 04:59 42.35246 147.42528 38056 ft 449 kts 227°
2026-05-06 05:00 42.30787 147.36690 38063 ft 449 kts 227°
2026-05-06 05:00 42.26271 147.30788 38055 ft 449 kts 227°
2026-05-06 05:01 42.21777 147.24930 38064 ft 449 kts 227°
2026-05-06 05:01 42.17306 147.19114 38069 ft 450 kts 227°
2026-05-06 05:02 42.12801 147.13267 38076 ft 450 kts 227°
2026-05-06 05:02 42.08288 147.07422 38069 ft 450 kts 227°
2026-05-06 05:03 42.03773 147.01587 38079 ft 450 kts 227°
2026-05-06 05:03 41.99253 146.95757 38075 ft 450 kts 227°
2026-05-06 05:04 41.94728 146.89933 38079 ft 450 kts 227°
2026-05-06 05:04 41.90198 146.84117 38081 ft 450 kts 227°
2026-05-06 05:04 41.87934 146.81214 37507 ft 450 kts 228°
2026-05-06 05:05 41.85683 146.78329 37742 ft 445 kts 229°
2026-05-06 05:05 41.83456 146.75473 38013 ft 441 kts 229°
2026-05-06 05:05 41.81237 146.72626 38100 ft 442 kts 229°
2026-05-06 05:06 41.76798 146.66933 38099 ft 442 kts 229°
2026-05-06 05:06 41.72349 146.61246 38098 ft 442 kts 229°
2026-05-06 05:07 41.67896 146.55571 38108 ft 442 kts 229°
2026-05-06 05:07 41.63443 146.49907 38110 ft 442 kts 229°
2026-05-06 05:08 41.58980 146.44244 38112 ft 442 kts 229°
2026-05-06 05:08 41.54520 146.38595 38112 ft 442 kts 229°
2026-05-06 05:09 41.50061 146.32958 38117 ft 442 kts 229°
2026-05-06 05:09 41.45600 146.27329 38118 ft 441 kts 229°
2026-05-06 05:10 41.41137 146.21710 38121 ft 441 kts 229°
2026-05-06 05:10 41.36674 146.16101 38123 ft 441 kts 229°
2026-05-06 05:11 41.32214 146.10508 38123 ft 440 kts 229°
2026-05-06 05:11 41.27754 146.04925 38122 ft 440 kts 228°
2026-05-06 05:12 41.23298 145.99360 38129 ft 439 kts 228°
2026-05-06 05:12 41.18846 145.93808 38130 ft 439 kts 228°
2026-05-06 05:13 41.14394 145.88268 38135 ft 438 kts 228°
2026-05-06 05:13 41.09947 145.82746 38135 ft 438 kts 228°
2026-05-06 05:14 41.05500 145.77235 38136 ft 438 kts 228°
2026-05-06 05:14 41.01050 145.71729 38132 ft 437 kts 228°
2026-05-06 05:15 40.96604 145.66239 38134 ft 437 kts 228°
2026-05-06 05:15 40.92183 145.60792 38137 ft 437 kts 228°
2026-05-06 05:16 40.87736 145.55322 38137 ft 437 kts 228°
2026-05-06 05:16 40.83292 145.49867 38135 ft 436 kts 228°
2026-05-06 05:17 40.78842 145.44415 38135 ft 436 kts 228°
2026-05-06 05:17 40.74398 145.38981 38139 ft 436 kts 228°
2026-05-06 05:18 40.69953 145.33555 38138 ft 435 kts 228°
2026-05-06 05:18 40.65510 145.28143 38145 ft 435 kts 228°
2026-05-06 05:19 40.61068 145.22741 38132 ft 435 kts 228°
2026-05-06 05:19 40.56621 145.17341 38538 ft 436 kts 227°
2026-05-06 05:19 40.54380 145.14620 38267 ft 441 kts 227°
2026-05-06 05:20 40.52118 145.11880 38143 ft 443 kts 227°
2026-05-06 05:20 40.47578 145.06397 38141 ft 444 kts 227°
2026-05-06 05:21 40.43110 145.00832 38143 ft 440 kts 231°
2026-05-06 05:21 40.39519 144.94414 38148 ft 435 kts 240°
2026-05-06 05:22 40.36335 144.87670 38145 ft 435 kts 241°
2026-05-06 05:22 40.33212 144.80885 38147 ft 434 kts 241°
2026-05-06 05:23 40.30079 144.74123 38141 ft 434 kts 241°
2026-05-06 05:23 40.25351 144.64013 38145 ft 434 kts 241°
2026-05-06 05:24 40.22192 144.57289 38144 ft 433 kts 241°
2026-05-06 05:24 40.19033 144.50576 38144 ft 433 kts 241°
2026-05-06 05:25 40.15873 144.43878 38142 ft 433 kts 241°
2026-05-06 05:25 40.12713 144.37190 38140 ft 432 kts 241°
2026-05-06 05:26 40.09555 144.30522 38155 ft 431 kts 241°
2026-05-06 05:26 40.06396 144.23866 38145 ft 431 kts 241°
2026-05-06 05:27 40.03239 144.17229 38145 ft 430 kts 241°
2026-05-06 05:27 40.00082 144.10605 38139 ft 430 kts 241°
2026-05-06 05:28 39.96925 144.03996 38138 ft 429 kts 241°
2026-05-06 05:28 39.93772 143.97408 38137 ft 428 kts 241°
2026-05-06 05:29 39.90617 143.90830 38139 ft 428 kts 241°
2026-05-06 05:29 39.87464 143.84270 38131 ft 427 kts 241°
2026-05-06 05:30 39.84312 143.77726 38132 ft 426 kts 241°
2026-05-06 05:30 39.81158 143.71193 38134 ft 426 kts 241°
2026-05-06 05:31 39.78008 143.64681 38134 ft 425 kts 241°
2026-05-06 05:31 39.75393 143.59287 38135 ft 424 kts 241°
2026-05-06 05:32 39.72253 143.52819 38133 ft 422 kts 241°
2026-05-06 05:32 39.69120 143.46378 38129 ft 421 kts 241°
2026-05-06 05:33 39.65994 143.39966 38130 ft 420 kts 241°
2026-05-06 05:33 39.62873 143.33576 38127 ft 419 kts 241°
2026-05-06 05:34 39.59756 143.27208 38124 ft 418 kts 241°
2026-05-06 05:34 39.56642 143.20860 38134 ft 417 kts 241°
2026-05-06 05:35 39.53534 143.14534 38130 ft 416 kts 241°
2026-05-06 05:35 39.50426 143.08223 38127 ft 415 kts 241°
2026-05-06 05:36 39.47323 143.01933 38125 ft 414 kts 241°
2026-05-06 05:36 39.44219 142.95655 38128 ft 414 kts 241°
2026-05-06 05:37 39.41128 142.89416 37996 ft 406 kts 240°
2026-05-06 05:37 39.39608 142.86356 38131 ft 403 kts 241°
2026-05-06 05:37 39.38097 142.83315 38127 ft 401 kts 240°
2026-05-06 05:38 39.35089 142.77261 38129 ft 400 kts 240°
2026-05-06 05:38 39.32083 142.71225 38124 ft 399 kts 240°
2026-05-06 05:39 39.29078 142.65205 38124 ft 398 kts 240°
2026-05-06 05:39 39.26078 142.59207 38122 ft 397 kts 240°
2026-05-06 05:40 39.22999 142.53287 38121 ft 399 kts 237°
2026-05-06 05:40 39.19482 142.47759 38124 ft 399 kts 235°
2026-05-06 05:41 39.15883 142.42329 38121 ft 398 kts 234°
2026-05-06 05:41 39.12283 142.36937 38119 ft 396 kts 234°
2026-05-06 05:42 39.08697 142.31557 38126 ft 395 kts 234°
2026-05-06 05:42 39.05121 142.26191 38123 ft 394 kts 234°
2026-05-06 05:43 39.01552 142.20841 38124 ft 393 kts 234°
2026-05-06 05:43 38.97991 142.15511 38123 ft 393 kts 234°
2026-05-06 05:44 38.94429 142.10190 38123 ft 392 kts 234°
2026-05-06 05:44 38.90869 142.04879 38128 ft 392 kts 234°
2026-05-06 05:45 38.87332 141.99614 38125 ft 392 kts 234°
2026-05-06 05:45 38.83774 141.94326 38121 ft 391 kts 234°
2026-05-06 05:46 38.80221 141.89054 38122 ft 390 kts 234°
2026-05-06 05:46 38.76671 141.83795 38123 ft 389 kts 234°
2026-05-06 05:47 38.73129 141.78557 38125 ft 389 kts 234°
2026-05-06 05:47 38.69591 141.73333 38118 ft 388 kts 234°
2026-05-06 05:48 38.66057 141.68124 38121 ft 387 kts 234°
2026-05-06 05:48 38.62528 141.62931 38130 ft 386 kts 234°
2026-05-06 05:49 38.59003 141.57751 38126 ft 386 kts 234°
2026-05-06 05:49 38.55478 141.52580 38125 ft 386 kts 234°
2026-05-06 05:50 38.51956 141.47422 38130 ft 385 kts 234°
2026-05-06 05:50 38.48438 141.42275 38126 ft 384 kts 234°
2026-05-06 05:51 38.44918 141.37133 38127 ft 385 kts 234°
2026-05-06 05:51 38.41394 141.31995 38130 ft 385 kts 234°
2026-05-06 05:52 38.37866 141.26867 38121 ft 385 kts 234°
2026-05-06 05:52 38.34338 141.21745 38115 ft 384 kts 234°
2026-05-06 05:53 38.30812 141.16631 38113 ft 384 kts 234°
2026-05-06 05:53 38.27286 141.11526 38109 ft 384 kts 234°
2026-05-06 05:54 38.23762 141.06431 38103 ft 383 kts 234°
2026-05-06 05:54 38.20244 141.01352 38100 ft 382 kts 234°
2026-05-06 05:55 38.16851 140.96178 38100 ft 379 kts 239°
2026-05-06 05:55 38.14354 140.90349 38103 ft 375 kts 249°
2026-05-06 05:56 38.13075 140.83937 38104 ft 377 kts 259°
2026-05-06 05:56 38.12419 140.77333 38102 ft 377 kts 260°
2026-05-06 05:57 38.11840 140.70708 38097 ft 378 kts 260°
2026-05-06 05:57 38.11241 140.64068 38107 ft 378 kts 260°
2026-05-06 05:58 38.10621 140.57435 38104 ft 379 kts 259°
2026-05-06 05:58 38.09988 140.50792 38101 ft 379 kts 259°
2026-05-06 05:59 38.09347 140.44143 38128 ft 381 kts 259°
2026-05-06 05:59 38.08700 140.37450 38094 ft 383 kts 259°
2026-05-06 06:00 38.08053 140.30746 38098 ft 383 kts 259°
2026-05-06 06:00 38.07398 140.24032 38093 ft 383 kts 259°
2026-05-06 06:01 38.06740 140.17312 38095 ft 384 kts 259°
2026-05-06 06:01 38.06071 140.10563 38096 ft 386 kts 259°
2026-05-06 06:02 38.05399 140.03798 38094 ft 387 kts 259°
2026-05-06 06:02 38.04721 139.97019 38101 ft 388 kts 259°
2026-05-06 06:03 38.04039 139.90221 38103 ft 389 kts 259°
2026-05-06 06:03 38.03350 139.83412 38103 ft 390 kts 259°
2026-05-06 06:04 38.02656 139.76586 38096 ft 391 kts 259°
2026-05-06 06:04 38.01959 139.69752 38102 ft 391 kts 259°
2026-05-06 06:05 38.01254 139.62892 38101 ft 394 kts 259°
2026-05-06 06:05 38.00535 139.56000 38104 ft 394 kts 259°
2026-05-06 06:06 37.99819 139.49100 38110 ft 395 kts 259°
2026-05-06 06:06 37.99104 139.42248 38114 ft 394 kts 259°
2026-05-06 06:07 37.98374 139.35309 38119 ft 395 kts 259°
2026-05-06 06:07 37.97643 139.28419 38125 ft 395 kts 259°
2026-05-06 06:08 37.96907 139.21514 38100 ft 395 kts 259°
2026-05-06 06:08 37.96173 139.14661 38101 ft 396 kts 259°
2026-05-06 06:09 37.95749 139.07681 38104 ft 399 kts 263°
2026-05-06 06:09 37.95555 139.00598 38104 ft 400 kts 264°
2026-05-06 06:10 37.95394 138.93545 38105 ft 401 kts 264°
2026-05-06 06:10 37.95228 138.86482 38109 ft 402 kts 264°
2026-05-06 06:11 37.95050 138.79398 38111 ft 402 kts 264°
2026-05-06 06:11 37.94866 138.72359 38112 ft 403 kts 263°
2026-05-06 06:12 37.94677 138.65250 38103 ft 404 kts 263°
2026-05-06 06:12 37.94482 138.58137 38111 ft 404 kts 263°
2026-05-06 06:13 37.94284 138.51015 38111 ft 405 kts 263°
2026-05-06 06:13 37.94081 138.43881 38111 ft 406 kts 263°
2026-05-06 06:14 37.93872 138.36726 38114 ft 407 kts 263°
2026-05-06 06:14 37.93661 138.29557 38107 ft 408 kts 263°
2026-05-06 06:15 37.93482 138.23591 38110 ft 408 kts 263°
2026-05-06 06:15 37.93259 138.16401 38112 ft 409 kts 263°
2026-05-06 06:16 37.93032 138.09200 38108 ft 410 kts 263°
2026-05-06 06:16 37.92797 138.01982 38112 ft 411 kts 263°
2026-05-06 06:17 37.92562 137.94750 38120 ft 412 kts 263°
2026-05-06 06:17 37.92321 137.87497 38118 ft 413 kts 263°
2026-05-06 06:18 37.92075 137.80225 38114 ft 414 kts 263°
2026-05-06 06:18 37.91823 137.72935 38114 ft 415 kts 263°
2026-05-06 06:19 37.91566 137.65624 38110 ft 416 kts 263°
2026-05-06 06:19 37.91303 137.58294 38114 ft 417 kts 263°
2026-05-06 06:20 37.91036 137.50959 38113 ft 418 kts 263°
2026-05-06 06:20 37.90764 137.43607 38109 ft 418 kts 263°
2026-05-06 06:21 37.90487 137.36245 38111 ft 419 kts 263°
2026-05-06 06:21 37.90204 137.28866 38106 ft 420 kts 263°
2026-05-06 06:22 37.89929 137.21473 38105 ft 421 kts 263°
2026-05-06 06:22 37.89651 137.14062 38104 ft 422 kts 263°
2026-05-06 06:23 37.89368 137.06634 38101 ft 423 kts 263°
2026-05-06 06:23 37.89078 136.99190 38099 ft 424 kts 263°
2026-05-06 06:24 37.88784 136.91724 38100 ft 425 kts 264°
2026-05-06 06:24 37.88483 136.84237 38098 ft 426 kts 264°
2026-05-06 06:25 37.88178 136.76735 38098 ft 428 kts 264°
2026-05-06 06:26 37.87709 136.65440 38098 ft 429 kts 264°
2026-05-06 06:26 37.87389 136.57889 38093 ft 430 kts 264°
2026-05-06 06:27 37.87064 136.50329 38093 ft 431 kts 264°
2026-05-06 06:27 37.86734 136.42754 38094 ft 431 kts 264°
2026-05-06 06:28 37.86398 136.35166 38090 ft 432 kts 264°
2026-05-06 06:28 37.86057 136.27566 38091 ft 433 kts 264°
2026-05-06 06:29 37.85712 136.20002 38093 ft 434 kts 264°
2026-05-06 06:29 37.85359 136.12374 38090 ft 435 kts 264°
2026-05-06 06:30 37.85001 136.04727 38092 ft 436 kts 264°
2026-05-06 06:30 37.84637 135.97064 38093 ft 437 kts 264°
2026-05-06 06:31 37.84267 135.89384 38089 ft 438 kts 264°
2026-05-06 06:31 37.83892 135.81689 38089 ft 439 kts 264°
2026-05-06 06:32 37.83511 135.73986 38089 ft 439 kts 264°
2026-05-06 06:32 37.83123 135.66261 38090 ft 440 kts 264°
2026-05-06 06:33 37.82730 135.58525 38084 ft 441 kts 264°
2026-05-06 06:33 37.82331 135.50774 38086 ft 442 kts 264°
2026-05-06 06:34 37.81927 135.43017 38085 ft 443 kts 264°
2026-05-06 06:34 37.81517 135.35236 38084 ft 443 kts 264°
2026-05-06 06:35 37.81101 135.27452 38083 ft 444 kts 264°
2026-05-06 06:35 37.80679 135.19654 38080 ft 445 kts 264°
2026-05-06 06:36 37.80251 135.11848 38079 ft 446 kts 264°
2026-05-06 06:36 37.79817 135.04024 38079 ft 446 kts 264°
2026-05-06 06:37 37.79378 134.96188 38075 ft 447 kts 264°
2026-05-06 06:37 37.78933 134.88343 38075 ft 448 kts 264°
2026-05-06 06:38 37.78482 134.80496 38074 ft 448 kts 264°
2026-05-06 06:38 37.78025 134.72638 38073 ft 448 kts 264°
2026-05-06 06:39 37.77563 134.64776 38073 ft 449 kts 264°
2026-05-06 06:39 37.77095 134.56904 38069 ft 449 kts 264°
2026-05-06 06:40 37.76621 134.49028 38072 ft 450 kts 264°
2026-05-06 06:40 37.76142 134.41145 38070 ft 450 kts 264°
2026-05-06 06:41 37.75656 134.33247 38063 ft 451 kts 264°
2026-05-06 06:41 37.75165 134.25345 38065 ft 452 kts 264°
2026-05-06 06:42 37.74668 134.17426 38063 ft 452 kts 264°
2026-05-06 06:42 37.74164 134.09502 38062 ft 453 kts 264°
2026-05-06 06:43 37.73655 134.01560 38061 ft 454 kts 264°
2026-05-06 06:43 37.73139 133.93614 38055 ft 454 kts 264°
2026-05-06 06:44 37.72617 133.85650 38056 ft 455 kts 264°
2026-05-06 06:44 37.72089 133.77677 38054 ft 456 kts 264°
2026-05-06 06:45 37.71555 133.69690 38050 ft 457 kts 264°
2026-05-06 06:45 37.71008 133.61691 38065 ft 458 kts 264°
2026-05-06 06:46 37.70457 133.53719 38057 ft 459 kts 264°
2026-05-06 06:46 37.69892 133.45623 38053 ft 460 kts 264°
2026-05-06 06:47 37.69329 133.37627 38041 ft 461 kts 264°
2026-05-06 06:47 37.68756 133.29551 38038 ft 462 kts 264°
2026-05-06 06:48 37.68176 133.21469 38037 ft 463 kts 264°
2026-05-06 06:48 37.67590 133.13371 38038 ft 464 kts 264°
2026-05-06 06:49 37.66997 133.05260 38036 ft 464 kts 264°
2026-05-06 06:49 37.66400 132.97139 38040 ft 465 kts 265°
2026-05-06 06:50 37.65795 132.89014 38038 ft 466 kts 264°
2026-05-06 06:50 37.65180 132.80870 38038 ft 466 kts 265°
2026-05-06 06:51 37.64559 132.72720 38038 ft 467 kts 265°
2026-05-06 06:51 37.64168 132.64539 38032 ft 468 kts 269°
2026-05-06 06:52 37.64135 132.56331 38029 ft 468 kts 270°
2026-05-06 06:52 37.64153 132.48111 38027 ft 469 kts 270°
2026-05-06 06:53 37.64167 132.39883 38022 ft 469 kts 270°
2026-05-06 06:53 37.64168 132.31644 38025 ft 470 kts 270°
2026-05-06 06:54 37.64160 132.23404 38023 ft 470 kts 271°
2026-05-06 06:54 37.64145 132.15156 38021 ft 470 kts 271°
2026-05-06 06:55 37.64126 132.06909 38023 ft 470 kts 271°
2026-05-06 06:55 37.64100 131.98659 38020 ft 470 kts 271°
2026-05-06 06:56 37.64069 131.90406 38014 ft 470 kts 271°
2026-05-06 06:56 37.64033 131.82218 38007 ft 470 kts 271°
2026-05-06 06:57 37.63990 131.73976 38007 ft 470 kts 271°
2026-05-06 06:57 37.63942 131.65740 38004 ft 469 kts 271°
2026-05-06 06:58 37.63889 131.57513 38003 ft 469 kts 271°
2026-05-06 06:58 37.64023 131.49307 38001 ft 467 kts 275°
2026-05-06 06:59 37.64363 131.41121 38005 ft 467 kts 275°
2026-05-06 06:59 37.64682 131.32943 37998 ft 467 kts 275°
2026-05-06 07:00 37.64955 131.24765 37997 ft 466 kts 275°
2026-05-06 07:00 37.65163 131.17974 37999 ft 466 kts 275°
2026-05-06 07:01 37.65406 131.09805 37992 ft 465 kts 275°
2026-05-06 07:01 37.65685 131.00270 37996 ft 465 kts 275°
2026-05-06 07:02 37.65880 130.93498 37991 ft 465 kts 275°
2026-05-06 07:02 37.66109 130.85351 37990 ft 464 kts 275°
2026-05-06 07:03 37.66332 130.77214 37990 ft 464 kts 275°
2026-05-06 07:03 37.66549 130.69077 37988 ft 463 kts 275°
2026-05-06 07:04 37.66761 130.60956 37982 ft 463 kts 275°
2026-05-06 07:04 37.66967 130.52834 37982 ft 463 kts 275°
2026-05-06 07:05 37.67164 130.44866 37982 ft 462 kts 275°
2026-05-06 07:05 37.67357 130.36811 37980 ft 462 kts 275°
2026-05-06 07:06 37.67546 130.28701 37979 ft 462 kts 275°
2026-05-06 07:06 37.67728 130.20723 37978 ft 462 kts 275°
2026-05-06 07:07 37.67906 130.12621 37973 ft 462 kts 275°
2026-05-06 07:07 37.68078 130.04524 37971 ft 462 kts 275°
2026-05-06 07:08 37.68245 129.96424 37966 ft 461 kts 275°
2026-05-06 07:08 37.68406 129.88342 37960 ft 461 kts 275°
2026-05-06 07:09 37.68566 129.80254 37962 ft 460 kts 275°
2026-05-06 07:09 37.68716 129.72227 37964 ft 460 kts 275°
2026-05-06 07:10 37.68863 129.64148 37965 ft 460 kts 275°
2026-05-06 07:10 37.69000 129.56077 37953 ft 460 kts 275°
2026-05-06 07:11 37.69131 129.48009 37956 ft 460 kts 275°
2026-05-06 07:11 37.69257 129.39945 37959 ft 459 kts 275°
2026-05-06 07:12 37.69379 129.31885 37950 ft 459 kts 275°
2026-05-06 07:12 37.69496 129.23829 37942 ft 459 kts 275°
2026-05-06 07:13 37.69607 129.15776 37934 ft 459 kts 275°
2026-05-06 07:13 37.69713 129.07731 37932 ft 458 kts 275°
2026-05-06 07:14 37.69813 128.99691 37924 ft 458 kts 275°
2026-05-06 07:14 37.69901 128.91666 37944 ft 457 kts 275°
2026-05-06 07:15 37.69988 128.83732 37633 ft 446 kts 275°
2026-05-06 07:15 37.70028 128.79838 37381 ft 442 kts 275°
2026-05-06 07:15 37.69957 128.75947 37111 ft 446 kts 270°
2026-05-06 07:15 37.69557 128.72043 36848 ft 450 kts 266°
2026-05-06 07:16 37.69037 128.68135 36591 ft 452 kts 265°
2026-05-06 07:16 37.68470 128.64228 36334 ft 453 kts 264°
2026-05-06 07:16 37.67879 128.60319 36073 ft 455 kts 264°
2026-05-06 07:16 37.67279 128.56407 35609 ft 453 kts 264°
2026-05-06 07:17 37.66680 128.52523 34914 ft 453 kts 264°
2026-05-06 07:17 37.66079 128.48617 34103 ft 455 kts 264°
2026-05-06 07:17 37.65479 128.44680 33202 ft 458 kts 264°
2026-05-06 07:17 37.64878 128.40729 32316 ft 459 kts 264°
2026-05-06 07:18 37.64275 128.36771 31434 ft 460 kts 263°
2026-05-06 07:18 37.63671 128.32804 30530 ft 462 kts 263°
2026-05-06 07:18 37.63061 128.28809 29494 ft 465 kts 262°
2026-05-06 07:18 37.62444 128.24795 28555 ft 465 kts 262°
2026-05-06 07:19 37.61831 128.20822 27899 ft 460 kts 262°
2026-05-06 07:19 37.61221 128.16890 27223 ft 455 kts 262°
2026-05-06 07:19 37.60618 128.13007 26546 ft 451 kts 262°
2026-05-06 07:19 37.60019 128.09150 25880 ft 447 kts 261°
2026-05-06 07:20 37.59423 128.05314 25206 ft 443 kts 261°
2026-05-06 07:20 37.58831 128.01518 24536 ft 440 kts 261°
2026-05-06 07:20 37.58243 127.97747 23867 ft 437 kts 261°
2026-05-06 07:20 37.57658 127.94003 23140 ft 434 kts 260°
2026-05-06 07:21 37.57076 127.90293 22438 ft 429 kts 260°
2026-05-06 07:21 37.56499 127.86627 21777 ft 424 kts 260°
2026-05-06 07:21 37.55928 127.83004 21106 ft 419 kts 260°
2026-05-06 07:21 37.55365 127.79426 20449 ft 414 kts 259°
2026-05-06 07:22 37.54806 127.75890 19797 ft 410 kts 259°
2026-05-06 07:22 37.54250 127.72382 19114 ft 407 kts 259°
2026-05-06 07:22 37.53696 127.68898 18459 ft 404 kts 259°
2026-05-06 07:22 37.53152 127.65481 17778 ft 401 kts 259°
2026-05-06 07:23 37.52609 127.62067 17596 ft 398 kts 259°
2026-05-06 07:23 37.52064 127.58646 17441 ft 399 kts 259°
2026-05-06 07:23 37.51510 127.55175 17247 ft 398 kts 259°
2026-05-06 07:23 37.50973 127.51811 16998 ft 397 kts 259°
2026-05-06 07:24 37.50427 127.48408 16748 ft 396 kts 258°
2026-05-06 07:24 37.49886 127.45035 16504 ft 395 kts 258°
2026-05-06 07:24 37.49530 127.42866 16342 ft 394 kts 258°
2026-05-06 07:24 37.48680 127.39602 16090 ft 394 kts 245°
2026-05-06 07:25 37.47134 127.36762 15847 ft 395 kts 228°
2026-05-06 07:25 37.45046 127.34536 15457 ft 394 kts 218°
2026-05-06 07:25 37.42787 127.32544 14909 ft 389 kts 217°
2026-05-06 07:25 37.40642 127.30683 14789 ft 372 kts 217°
2026-05-06 07:26 37.38567 127.28870 14688 ft 355 kts 217°
2026-05-06 07:26 37.36587 127.27135 14580 ft 340 kts 217°
2026-05-06 07:26 37.34691 127.25469 14461 ft 326 kts 217°
2026-05-06 07:26 37.32871 127.23859 14318 ft 314 kts 217°
2026-05-06 07:27 37.31124 127.22310 14184 ft 303 kts 217°
2026-05-06 07:27 37.29443 127.20822 14047 ft 292 kts 217°
2026-05-06 07:27 37.27849 127.19288 13845 ft 286 kts 223°
2026-05-06 07:27 37.26431 127.17392 13821 ft 314 kts 234°
2026-05-06 07:28 37.25318 127.14887 13782 ft 345 kts 248°
2026-05-06 07:28 37.24880 127.11830 13736 ft 372 kts 270°
2026-05-06 07:28 37.26802 127.05730 13473 ft 390 kts 309°
2026-05-06 07:29 37.28930 127.03609 13227 ft 395 kts 328°
2026-05-06 07:29 37.31365 127.02037 13011 ft 393 kts 329°
2026-05-06 07:29 37.33700 127.00288 12965 ft 391 kts 323°
2026-05-06 07:29 37.35914 126.98318 12975 ft 389 kts 320°
2026-05-06 07:30 37.38040 126.96223 12981 ft 389 kts 318°
2026-05-06 07:30 37.40112 126.94059 12974 ft 388 kts 317°
2026-05-06 07:30 37.42078 126.91756 12925 ft 387 kts 311°
2026-05-06 07:30 37.43921 126.89303 12348 ft 384 kts 310°
2026-05-06 07:31 37.45504 126.87126 11914 ft 376 kts 310°
2026-05-06 07:31 37.47230 126.84746 11667 ft 361 kts 309°
2026-05-06 07:31 37.48879 126.82475 11386 ft 338 kts 309°
2026-05-06 07:32 37.50399 126.80380 10990 ft 312 kts 309°
2026-05-06 07:32 37.51806 126.78435 10627 ft 290 kts 309°
2026-05-06 07:32 37.53113 126.76624 10335 ft 271 kts 309°
2026-05-06 07:32 37.54337 126.74925 10062 ft 254 kts 309°
2026-05-06 07:33 37.55492 126.73324 9595 ft 245 kts 309°
2026-05-06 07:33 37.56628 126.71746 9052 ft 242 kts 309°
2026-05-06 07:33 37.57760 126.70162 8546 ft 247 kts 309°
2026-05-06 07:33 37.58940 126.68518 8061 ft 260 kts 309°
2026-05-06 07:34 37.60154 126.66826 7828 ft 254 kts 309°
2026-05-06 07:34 37.61295 126.65231 7559 ft 238 kts 309°
2026-05-06 07:34 37.62391 126.63698 7121 ft 232 kts 307°
2026-05-06 07:34 37.63224 126.62022 6759 ft 222 kts 291°
2026-05-06 07:35 37.63815 126.60230 6454 ft 221 kts 289°
2026-05-06 07:35 37.64380 126.58419 6184 ft 224 kts 288°
2026-05-06 07:35 37.64951 126.56595 5922 ft 223 kts 288°
2026-05-06 07:35 37.65520 126.54784 5616 ft 223 kts 288°
2026-05-06 07:36 37.66097 126.52960 5290 ft 225 kts 288°
2026-05-06 07:36 37.66676 126.51139 5060 ft 223 kts 288°
2026-05-06 07:36 37.67138 126.49291 4787 ft 220 kts 278°
2026-05-06 07:36 37.67371 126.47406 4436 ft 221 kts 275°
2026-05-06 07:37 37.67563 126.45478 4248 ft 216 kts 275°
2026-05-06 07:37 37.67755 126.43603 4057 ft 214 kts 274°
2026-05-06 07:37 37.67929 126.41754 3777 ft 213 kts 272°
2026-05-06 07:37 37.67875 126.39922 3649 ft 205 kts 259°
2026-05-06 07:38 37.67649 126.38141 3719 ft 206 kts 258°
2026-05-06 07:38 37.67410 126.36365 3593 ft 204 kts 258°
2026-05-06 07:38 37.66988 126.34674 3460 ft 202 kts 237°
2026-05-06 07:38 37.66005 126.33422 3436 ft 201 kts 219°
2026-05-06 07:39 37.64867 126.32366 3408 ft 205 kts 218°
2026-05-06 07:39 37.63624 126.31546 3350 ft 209 kts 194°
2026-05-06 07:39 37.62167 126.31738 3295 ft 217 kts 164°
2026-05-06 07:39 37.60874 126.32741 3143 ft 222 kts 146°
2026-05-06 07:40 37.59661 126.34000 2815 ft 224 kts 148°
2026-05-06 07:40 37.58401 126.35096 2489 ft 223 kts 153°
2026-05-06 07:40 37.57141 126.36186 2189 ft 215 kts 150°
2026-05-06 07:40 37.55967 126.37266 1914 ft 203 kts 151°
2026-05-06 07:41 37.54855 126.38255 1674 ft 189 kts 152°
2026-05-06 07:41 37.53819 126.39175 1413 ft 176 kts 152°
2026-05-06 07:41 37.52857 126.40034 1165 ft 164 kts 150°
2026-05-06 07:41 37.51955 126.40841 952 ft 153 kts 150°
2026-05-06 07:42 37.51113 126.41592 735 ft 143 kts 149°
2026-05-06 07:42 37.50327 126.42293 536 ft 135 kts 149°
2026-05-06 07:42 37.49586 126.42955 371 ft 129 kts 149°
2026-05-06 07:42 37.48858 126.43604 204 ft 128 kts 149°
2026-05-06 07:43 37.48136 126.44247 45 ft 127 kts 149°
2026-05-06 07:43 37.47538 126.44778 39 ft 77 kts 144°
2026-05-06 07:43 37.47243 126.45041 39 ft 40 kts 146°
2026-05-06 07:43 37.47005 126.45170 39 ft 33 kts 172°
2026-05-06 07:44 37.46843 126.45189 39 ft 19 kts 173°
2026-05-06 07:44 37.46718 126.45244 39 ft 20 kts 149°
2026-05-06 07:44 37.46596 126.45351 39 ft 23 kts 144°
2026-05-06 07:44 37.46470 126.45464 39 ft 19 kts 144°
2026-05-06 07:45 37.46417 126.45509 39 ft 5 kts 150°
2026-05-06 07:45 37.46390 126.45512 39 ft 6 kts 188°
2026-05-06 07:45 37.46355 126.45477 38 ft 8 kts 232°
2026-05-06 07:45 37.46348 126.45464 38 ft 0 kts 233°
2026-05-06 07:46 37.46347 126.45463 38 ft 2 kts 233°
2026-05-06 07:47 37.46322 126.45419 39 ft 8 kts 234°
2026-05-06 07:47 37.46282 126.45346 39 ft 11 kts 234°
2026-05-06 07:47 37.46230 126.45256 39 ft 14 kts 235°
2026-05-06 07:47 37.46197 126.45155 39 ft 13 kts 280°
2026-05-06 07:48 37.46262 126.45074 39 ft 15 kts 325°
2026-05-06 07:48 37.46351 126.44993 39 ft 17 kts 323°
2026-05-06 07:48 37.46455 126.44902 37 ft 19 kts 326°
2026-05-06 07:48 37.46572 126.44798 39 ft 22 kts 324°
2026-05-06 07:49 37.46702 126.44682 39 ft 24 kts 324°
2026-05-06 07:49 37.46843 126.44556 37 ft 26 kts 324°
2026-05-06 07:49 37.46996 126.44419 39 ft 28 kts 324°
2026-05-06 07:49 37.47120 126.44309 39 ft 11 kts 325°
2026-05-06 07:50 37.47139 126.44293 39 ft 4 kts 324°
2026-05-06 07:50 37.47160 126.44251 39 ft 6 kts 281°
2026-05-06 07:50 37.47143 126.44196 39 ft 8 kts 237°
2026-05-06 07:50 37.47107 126.44130 39 ft 9 kts 235°
2026-05-06 07:51 37.47064 126.44054 39 ft 12 kts 235°
2026-05-06 07:51 37.47041 126.43962 39 ft 11 kts 283°
2026-05-06 07:51 37.47097 126.43887 39 ft 13 kts 324°
2026-05-06 07:51 37.47170 126.43825 39 ft 12 kts 327°
2026-05-06 07:52 37.47247 126.43760 39 ft 12 kts 326°
2026-05-06 07:52 37.47260 126.43714 39 ft 5 kts 253°
2026-05-06 07:52 37.47239 126.43666 37 ft 6 kts 237°
2026-05-06 07:52 37.47234 126.43659 37 ft 0 kts 237°
2026-05-06 07:53 37.47227 126.43644 38 ft 2 kts 237°
2026-05-06 07:53 37.47225 126.43640 39 ft 0 kts 237°